Weather History for VANP - December, 2012

Change the Weather History Date:

Thursday, December 13, 2012

  Actual Average Record
Temperature  
Mean Temperature 73 °F -  
Max Temperature 89 °F 83 °F - ()
Min Temperature 57 °F 55 °F - ()
Cooling Degree Days 8    
Growing Degree Days 23 (Base 50)    
Moisture  
Dew Point 62 °F    
Average Humidity 66    
Maximum Humidity 90    
Minimum Humidity 43    
Precipitation  
Precipitation 0.00 in 0.02 in - ()
Sea Level Pressure  
Sea Level Pressure 29.91 in    
Wind  
Wind Speed 1 mph ()    
Max Wind Speed 4 mph    
Max Gust Speed -    
Visibility 2.6 miles    
Events      
T = Trace of Precipitation, MM = Missing Value Source: Averaged Metar Reports

Daily Weather History Graph

Daily Weather History Graph

Search for Another Location

Airport or City:

Trip Planner

Search our weather history database for the weather conditions in past years. The results will help you decide how hot, cold, wet, or windy it might be!

Date:

Astronomy

Dec. 13, 2012 Rise Set
Actual Time 6:42 AM IST 5:34 PM IST
Civil Twilight 6:17 AM IST 5:58 PM IST
Nautical Twilight 5:50 AM IST 6:25 PM IST
Astronomical Twilight 5:22 AM IST 6:53 PM IST
Moon 6:23 AM IST (12/13) 5:42 PM IST (12/13)
Length of Visible Light 11h 40m
Length of Day
10h 52m
Waning Crescent, 0% of the Moon is Illuminated
Dec 13
Waning Crescent
Dec 13
New
Dec 20
First Quarter
Dec 28
Full
Jan 5
Last Quarter

Hourly Weather History & Observations

Time (IST) Temp. Heat Index Dew Point Humidity Pressure Visibility Wind Dir Wind Speed Gust Speed Precip Events Conditions
1:10 AM 68.0 °F - 57.2 °F 68% 29.89 in 2.5 mi North 2.3 mph - N/A   Haze
2:10 AM 62.6 °F - 55.4 °F 77% 29.89 in 2.5 mi Calm Calm - N/A   Haze
2:30 AM 62 °F - 59 °F 87% 29.88 in 2 mi Calm Calm - -   Haze
5:10 AM 62.6 °F - 55.4 °F 77% 29.89 in 2.5 mi Calm Calm - N/A   Haze
5:30 AM 58 °F - 56 °F 90% 29.90 in 2 mi Calm Calm - -   Haze
7:10 AM 62.6 °F - 55.4 °F 77% 29.92 in 1.9 mi North 2.3 mph - N/A   Haze
8:10 AM 66.2 °F - 57.2 °F 73% 29.95 in 2.5 mi North 2.3 mph - N/A   Haze
8:30 AM 68 °F - 58 °F 64% 29.96 in 2 mi Calm Calm - -   Haze
9:10 AM 73.4 °F - 57.2 °F 57% 29.98 in 3.1 mi Calm Calm - N/A   Haze
10:10 AM 78.8 °F - 59.0 °F 51% 29.98 in 3.1 mi East 2.3 mph - N/A   Haze
11:10 AM 82.4 °F 83.4 °F 62.6 °F 51% 29.98 in 3.1 mi East 2.3 mph - N/A   Haze
11:30 AM 81 °F - 68 °F 57% 29.93 in 2 mi ESE 2.3 mph - -   Haze
1:10 PM 87.8 °F 91.4 °F 68.0 °F 52% 29.92 in 3.1 mi SE 2.3 mph - N/A   Haze
2:10 PM 89.6 °F 93.4 °F 68.0 °F 49% 29.89 in 3.1 mi Calm Calm - N/A   Haze
2:30 PM 88 °F - 72 °F 50% 29.81 in 2 mi Calm Calm - -   Haze
3:10 PM 89.6 °F 91.1 °F 64.4 °F 43% 29.86 in 3.1 mi SW 3.5 mph - N/A   Haze
5:10 PM 86.0 °F 87.3 °F 64.4 °F 48% 29.86 in 3.1 mi South 2.3 mph - N/A   Haze
5:30 PM 80 °F - 69 °F 62% 29.82 in 2 mi Calm Calm - -   Haze
6:10 PM 78.8 °F - 62.6 °F 57% 29.89 in 3.1 mi Calm Calm - N/A   Haze
8:10 PM 73.4 °F - 62.6 °F 69% 29.92 in 3.1 mi SSE 2.3 mph - N/A   Haze
8:30 PM 68 °F - 63 °F 80% 29.90 in 2 mi SSE 2.3 mph - -   Haze
10:10 PM 73.4 °F - 66.2 °F 78% 29.95 in 3.1 mi Calm Calm - N/A   Haze
11:10 PM 71.6 °F - 64.4 °F 78% 29.95 in 3.1 mi Calm Calm - N/A   Haze
11:30 PM 68 °F - 65 °F 87% 29.91 in 2 mi Calm Calm - -   Haze